Regional Weather Roundup
Issued by NWS Grand Forks, ND

Home | Current Version | Previous Version | Graphics & Text | Print | Product List | Glossary On
Versions: 1 2 3 4 5 6 7 8 9 10 11 12 13 14 15 16 17 18 19 20 21 22 23 24 25 26 27 28 29 30 31 32 33 34 35 36 37 38 39 40 41 42 43 44 45 46 47 48 49 50
513
ASUS43 KFGF 301410
RWRFGF
PRAIRIE TO PINES  WEATHER ROUNDUP
NATIONAL WEATHER SERVICE EASTERN NORTH DAKOTA/GRAND FORKS ND
900 AM CDT SAT APR 30 2016

 **SATELLITE DATA USED TO AUGMENT SKY COVER AT AUTOMATED STATIONS**
 *****  WEATHER ACROSS EASTERN NORTH DAKOTA  *****

CITY           SKY/WX    TMP DP  RH WIND       PRES   REMARKS
GRAND FORKS    MOSUNNY   49  34  56 NE14      30.28S
GRAND FRKS AFB SUNNY     49  34  57 E12       30.28F
DEVILS LAKE    SUNNY     47  34  60 E14       30.28R
FARGO          SUNNY     49  33  54 NE20      30.20S
WAHPETON ARPT  CLOUDY    46  30  53 E20G26    30.15S
$$

 ***** WEATHER ACROSS CENTRAL AND WESTERN NORTH DAKOTA  *****

CITY           SKY/WX    TMP DP  RH WIND       PRES   REMARKS
BISMARCK       CLOUDY    47  36  65 NE14      30.19R
MINOT          SUNNY     48  30  49 E5        30.28R
JAMESTOWN      MOSUNNY   47  33  58 E15       30.20R
MINOT AFB      SUNNY     45  31  56 NE7       30.28R
GARRISON         N/A     48  32  53 NE10G18   30.22S
WILLISTON      SUNNY     47  31  53 N9        30.27R
DICKINSON      CLOUDY    41  31  67 NE14      30.17R
HETTINGER      CLOUDY    42  33  70 NE13      30.15R
$$

 *****  OTHER AIRPORT OBSERVATIONS IN OUR AREA  *****

CITY           SKY/WX    TMP DP  RH WIND       PRES   REMARKS
WALHALLA       FAIR      45  32  61 CALM      30.35S
GRAFTON AIRPOR FAIR      48  36  61 E8        30.33S
VALLEY CITY AR FAIR      46  34  61 NE15G21   30.22S
CANDO          FAIR      50  32  50 E12       30.32S
CAVALIER APRT  FAIR      46  32  57 NE3       30.34S
GWINNER        FAIR      48  36  61 NE18      30.16S
SHEYENNE NWR     N/A     48  33  55 E14       29.95S
ROLLA          FAIR      46  28  49 NE7       30.32S
 ***** THE ABOVE OBSERVATIONS ARE NON NWS ARE NOT QUALITY
       CONTROLLED AND MAY MIS-REPORT RAIN FOR SNOW...
$$

  *****  WEATHER ACROSS NORTHERN MINNESOTA  *****

CITY           SKY/WX    TMP DP  RH WIND       PRES   REMARKS
FLAG ISLAND    SUNNY     43  34  70 N6        30.36S
WARROAD        SUNNY     43  36  75 NE9       30.36S
ROSEAU         SUNNY     46  37  71 E9        30.35R
HALLOCK        SUNNY     48  34  57 E7        30.33S
THF RVR FALLS  SUNNY     46  32  57 NE13      30.29F
BAUDETTE       SUNNY     47  31  53 E6        30.34R
WASKISH        SUNNY     46  34  61 NE12      30.30S
CROOKSTON      SUNNY     48  32  53 E17       30.27F
STEPHEN NDAWN    N/A     50  34  53 E12         N/A
GREENBUSH NDAW   N/A     46  37  71 NE9         N/A
$$
  *****  WEATHER ACROSS CENTRAL AND WEST MINNESOTA  *****

CITY           SKY/WX    TMP DP  RH WIND       PRES   REMARKS
FOSSTON        SUNNY     46  34  61 E9        30.25S
BEMIDJI        SUNNY     44  32  62 E10       30.25S
PARK RAPIDS    SUNNY     46  30  53 E10G22    30.20S
ELBOW LAKE     FAIR      45  32  60 NE20G26   30.13S
WADENA         SUNNY     45  30  57 NE14G22   30.17S
DETROIT LAKES  SUNNY     45  32  61 E15G23    30.19F
MOORHEAD       MOSUNNY   48  34  57 E17       30.21S
FERGUS FALLS   SUNNY     45  30  57 E22       30.13F
MORRIS MN      MOSUNNY   43  34  70 NE17      30.09S
STAPLES        SUNNY     45  30  57 NE12G22   30.17S
$$
  *****  WEATHER ELSEWHERE ACROSS MINNESOTA  *****

CITY           SKY/WX    TMP DP  RH WIND       PRES   REMARKS
DULUTH         MOSUNNY   44  31  60 E20G29    30.23F
INTRNTL FALLS  SUNNY     45  33  63 NE8       30.32S
ELY            SUNNY     43  30  61 NE8       30.28R
CLOQUET        SUNNY     45  30  57 NE17G24   30.22S
WHEATON        CLOUDY    48  36  61 NE15G22   30.13S
BRAINERD       SUNNY     45  31  58 NE17G25   30.18F
HIBBING        SUNNY     42  30  62 E12       30.25F
ALEXANDRIA     CLOUDY    44  31  60 NE20G32   30.12S
SAINT CLOUD    CLOUDY    42  32  67 NE10G21   30.12S
MINNEAPOLIS    CLOUDY    47  33  58 NE12      30.09S
$$

  *****  WEATHER ACROSS SOUTH DAKOTA  *****

CITY           SKY/WX    TMP DP  RH WIND       PRES   REMARKS
SIOUX FALLS    CLOUDY    45  38  76 NE20      29.92F
BROOKINGS      CLOUDY    40  34  79 NE15G23   29.98R
WATERTOWN      CLOUDY    41  32  70 E17G28    30.02S
HURON          CLOUDY    45  40  82 NE14      30.02R
SISSETON         N/A     46  33  60 E22       30.10S
ABERDEEN       MOSUNNY   45  35  68 NE15      30.10S
MITCHELL       CLOUDY    46  40  79 NE17      29.98S
PIERRE         CLOUDY    45  39  79 NE17      30.03R
MOBRIDGE       CLOUDY    47  39  74 NE13      30.10R
RAPID CITY     CLOUDY    40  37  89 N14       30.07R
$$

  *****  SOME WEATHER IN NEARBY STATES *****

CITY           SKY/WX    TMP DP  RH WIND       PRES   REMARKS
GLASGOW MT     MOSUNNY   48  32  53 E16       30.22R
GREAT FALLS MT CLOUDY    39  36  89 CALM      30.16R
CHEYENNE WY    SNOW      29  26  89 N16       29.91R VSB 1/2 WCI  17
SCOTTSBLUFF NE LGT SNOW  35  31  85 N20       29.93S FOG     WCI  24
OMAHA NE       LGT RAIN  47  44  90 CALM      29.75R FOG
DES MOINES IA  RAIN      46  43  89 E14G23    29.79F FOG
DAVENPORT IA   CLOUDY    47  44  90 E22G30    29.90F FOG
CHICAGO IL     CLOUDY    48  41  76 E14       30.04S
EAU CLAIRE WI  CLOUDY    45  34  65 NE12      30.11S
LA CROSSE WI   CLOUDY    45  32  60 E12       30.06F
$$

  *****  SOME NATIONAL WEATHER *****

CITY           SKY/WX    TMP DP  RH WIND       PRES   REMARKS
LA GUARDIA NY  PTSUNNY   53  38  56 CALM      30.22S
RALEIGH NC     CLOUDY    60  57  89 SE7       30.13S
ATLANTA GA     PTSUNNY   76  58  53 E6        29.99R
NEW ORLEANS LA CLOUDY    80  73  79 SE14      29.81S
OKLAHOMA CITY  MOSUNNY   53  47  79 NW13      29.78S
ALBUQUERQUE NM MOSUNNY   46  37  71 SE5       29.89R
SALT LAKE CITY MOSUNNY   48  40  73 CALM      29.91R
LOS ANGELES CA PTSUNNY   56  49  77 W7        29.84R
BOISE ID       SUNNY     45  37  73 W9        30.04R
SEATTLE WA     PTCLDY    47  44  90 CALM      30.35R
$$

*** WEATHER ACROSS MANITOBA...SASKATCHEWAN AND ONTARIO ***
                ***ONTARIO***

CITY           SKY/WX    TMP DP  RH WIND       PRES   REMARKS
GERALDTON      MOSUNNY   37  27  65 NE12      30.35F
THUNDER BAY    MOSUNNY   46  32  57 E9        30.31F
SIOUX LOOKOUT  MOSUNNY   43  25  49 VRB2      30.38S
TORONTO        MOSUNNY   52  27  37 SE7       30.21S
BIG TROUT LK   SUNNY     36  28  75 S5        30.44S
PICKLE LAKE    MOSUNNY   37  27  65 N7        30.39R
DRYDEN         SUNNY     43  30  61 NE6       30.36S
KENORA         SUNNY     45  30  57 NE6       30.37R
$$
                *** MANITOBA***

CITY           SKY/WX    TMP DP  RH WIND       PRES   REMARKS
BRANDON        MOSUNNY   50  27  40 E15       30.35R
DAUPHIN        SUNNY     45  27  49 VRB2      30.40S
ISLAND LAKE    NOT AVBL
PILOT MOUND      N/A     50  30  46 E7          N/A
THE PAS        PTSUNNY   48  28  46 S9        30.38S
THOMPSON         N/A     48  28  46 SW3       30.36S
WINNIPEG       SUNNY     48  32  53 E5        30.38R
LYNN LAKE      SUNNY     52  27  37 SW6       30.29S
CHURCHILL      MOSUNNY   27  23  86 SE8       30.48S WCI  18
$$
                ***SASKATCHEWAN***

CITY           SKY/WX    TMP DP  RH WIND       PRES   REMARKS
ESTEVAN        MOSUNNY   45  27  49 E12       30.31R
KINDERSLEY     PTSUNNY   46  30  53 SE10      30.25R
LLOYDMINSTER   PTSUNNY   46  27  46 S7        30.23R
PRINCE ALBERT  MOSUNNY   50  30  46 S5        30.33R
REGINA         MOSUNNY   46  25  42 SE15      30.33R
YORKTON        SUNNY     48  30  49 E6        30.38R
N. BATTLEFORD  SUNNY     48  28  46 SE8       30.28R
LA RONGE       MOSUNNY   45  25  45 S6        30.30S
SASKATOON      SUNNY     48  28  46 SE13      30.31R
SWIFT CURRENT  PTSUNNY   50  30  46 SE12G17   30.24R
$$
NOTE: THESE ARE AUTOMATED STATIONS WITH LIMITED QUALITY CONTROL
      "FAIR" INDICATES FEW OR NO CLOUDS BELOW 12,000 FEET WITH NO
      SIGNIFICANT WEATHER AND/OR OBSTRUCTIONS TO VISIBILITY.
      SKY/WX - SKY CONDITION AND SIGNIFICANT WEATHER.
      TMP - AIR TEMPERATURE.    DP   - DEWPOINT TEMPERATURE.
      RH  - RELATIVE HUMIDITY.  PRES - PRESSURE.
      HX  - HEAT INDEX.         WCI  - WIND CHILL INDEX.
$




USA.gov is the U.S. government's official web portal to all federal, state and local government web resources and services.